Time,TemperatureF,DewpointF,PressureIn,WindDirection,WindDirectionDegrees,WindSpeedMPH,WindSpeedGustMPH,Humidity,HourlyPrecipIn,Conditions,Clouds,dailyrainin,SoftwareType,DateUTC
2013-11-05 08:13:00,48.8,44.8,30.31,SSW,203,4.0,-999.0,86,0.00,,,0.00,Wunderground v.1.15,2013-11-05 13:13:00,
2013-11-05 08:18:00,49.0,45.0,30.32,SSW,203,5.0,-999.0,86,0.00,,,0.00,Wunderground v.1.15,2013-11-05 13:18:00,
2013-11-05 08:23:00,49.0,45.0,30.32,SSW,203,5.0,-999.0,86,0.00,,,0.00,Wunderground v.1.15,2013-11-05 13:23:00,
2013-11-05 08:28:00,49.3,45.6,30.32,SSW,203,5.0,-999.0,87,0.00,,,0.00,Wunderground v.1.15,2013-11-05 13:28:00,
2013-11-05 08:33:00,49.3,45.6,30.32,SSW,203,5.0,-999.0,87,0.00,,,0.00,Wunderground v.1.15,2013-11-05 13:33:00,
2013-11-05 08:38:00,49.4,45.7,30.33,SSW,203,6.0,-999.0,87,0.00,,,0.00,Wunderground v.1.15,2013-11-05 13:38:00,
2013-11-05 08:43:00,49.4,45.7,30.33,SSW,203,6.0,-999.0,87,0.00,,,0.00,Wunderground v.1.15,2013-11-05 13:43:00,
2013-11-05 08:48:00,49.5,45.8,30.33,SSW,203,6.0,-999.0,87,0.00,,,0.00,Wunderground v.1.15,2013-11-05 13:48:00,
2013-11-05 08:53:00,49.5,45.8,30.33,SSW,203,6.0,-999.0,87,0.00,,,0.00,Wunderground v.1.15,2013-11-05 13:53:00,
2013-11-05 08:58:00,49.7,46.0,30.33,SW,225,4.0,-999.0,87,0.00,,,0.00,Wunderground v.1.15,2013-11-05 13:58:00,
2013-11-05 09:03:00,49.7,46.0,30.33,SW,225,4.0,-999.0,87,0.00,,,0.00,Wunderground v.1.15,2013-11-05 14:03:00,
2013-11-05 09:08:00,49.5,46.1,30.33,SW,225,4.0,-999.0,88,0.00,,,0.00,Wunderground v.1.15,2013-11-05 14:08:00,
2013-11-05 09:13:00,49.5,46.1,30.33,SW,225,4.0,-999.0,88,0.00,,,0.00,Wunderground v.1.15,2013-11-05 14:13:00,
2013-11-05 09:18:00,49.5,46.4,30.33,SSW,203,4.0,-999.0,89,0.00,,,0.00,Wunderground v.1.15,2013-11-05 14:18:00,
2013-11-05 09:23:00,49.5,46.4,30.33,SSW,203,4.0,-999.0,89,0.00,,,0.00,Wunderground v.1.15,2013-11-05 14:23:00,
2013-11-05 09:28:00,49.8,46.4,30.33,SSW,203,2.0,-999.0,88,0.00,,,0.00,Wunderground v.1.15,2013-11-05 14:28:00,
2013-11-05 09:33:00,49.8,46.4,30.33,SSW,203,2.0,-999.0,88,0.00,,,0.00,Wunderground v.1.15,2013-11-05 14:33:00,
2013-11-05 09:38:00,49.9,46.5,30.33,SSW,203,3.0,-999.0,88,0.00,,,0.00,Wunderground v.1.15,2013-11-05 14:38:00,
2013-11-05 09:43:00,49.9,46.5,30.33,SSW,203,3.0,-999.0,88,0.00,,,0.00,Wunderground v.1.15,2013-11-05 14:43:00,
2013-11-05 09:48:00,50.1,47.0,30.33,SSW,203,5.0,-999.0,89,0.00,,,0.00,Wunderground v.1.15,2013-11-05 14:48:00,
2013-11-05 09:53:00,50.1,47.0,30.33,SSW,203,5.0,-999.0,89,0.00,,,0.00,Wunderground v.1.15,2013-11-05 14:53:00,
2013-11-05 09:58:00,50.3,47.2,30.33,SSW,203,6.0,-999.0,89,0.00,,,0.00,Wunderground v.1.15,2013-11-05 14:58:00,
2013-11-05 10:03:00,50.3,47.2,30.33,SSW,203,6.0,-999.0,89,0.00,,,0.00,Wunderground v.1.15,2013-11-05 15:03:00,
2013-11-05 10:08:00,50.6,47.5,30.33,SSW,203,6.0,-999.0,89,0.00,,,0.00,Wunderground v.1.15,2013-11-05 15:08:00,
2013-11-05 10:13:00,50.6,47.5,30.33,SSW,203,6.0,-999.0,89,0.00,,,0.00,Wunderground v.1.15,2013-11-05 15:13:00,
2013-11-05 10:18:00,50.9,47.8,30.33,SSW,203,7.0,-999.0,89,0.00,,,0.00,Wunderground v.1.15,2013-11-05 15:18:00,
2013-11-05 10:23:00,50.9,47.8,30.33,SSW,203,7.0,-999.0,89,0.00,,,0.00,Wunderground v.1.15,2013-11-05 15:23:00,
2013-11-05 10:28:00,51.2,47.8,30.33,SSW,203,7.0,-999.0,88,0.00,,,0.00,Wunderground v.1.15,2013-11-05 15:28:00,
2013-11-05 10:33:00,51.2,47.8,30.33,SSW,203,7.0,-999.0,88,0.00,,,0.00,Wunderground v.1.15,2013-11-05 15:33:00,
2013-11-05 10:38:00,51.4,48.0,30.33,SSW,203,6.0,-999.0,88,0.00,,,0.00,Wunderground v.1.15,2013-11-05 15:38:00,
2013-11-05 10:43:00,51.4,48.0,30.33,SSW,203,6.0,-999.0,88,0.00,,,0.00,Wunderground v.1.15,2013-11-05 15:43:00,
2013-11-05 10:48:00,51.7,48.3,30.33,SSW,203,5.0,-999.0,88,0.00,,,0.00,Wunderground v.1.15,2013-11-05 15:48:00,
2013-11-05 10:53:00,51.7,48.3,30.33,SSW,203,5.0,-999.0,88,0.00,,,0.00,Wunderground v.1.15,2013-11-05 15:53:00,
2013-11-05 10:58:00,51.7,48.0,30.34,SSW,203,5.0,-999.0,87,0.00,,,0.00,Wunderground v.1.15,2013-11-05 15:58:00,
2013-11-05 11:03:00,51.7,48.0,30.34,SSW,203,5.0,-999.0,87,0.00,,,0.00,Wunderground v.1.15,2013-11-05 16:03:00,
2013-11-05 11:08:00,51.8,48.1,30.34,SSW,203,5.0,-999.0,87,0.00,,,0.00,Wunderground v.1.15,2013-11-05 16:08:00,
2013-11-05 11:13:00,51.8,48.1,30.34,SSW,203,5.0,-999.0,87,0.00,,,0.00,Wunderground v.1.15,2013-11-05 16:13:00,
2013-11-05 11:18:00,52.4,48.9,30.33,SSW,203,4.0,-999.0,88,0.00,,,0.00,Wunderground v.1.15,2013-11-05 16:18:00,
2013-11-05 11:23:00,52.4,48.9,30.33,SSW,203,4.0,-999.0,88,0.00,,,0.00,Wunderground v.1.15,2013-11-05 16:23:00,
2013-11-05 11:28:00,53.0,48.9,30.33,SSW,203,4.0,-999.0,86,0.00,,,0.00,Wunderground v.1.15,2013-11-05 16:28:00,
2013-11-05 11:33:00,53.0,48.9,30.33,SSW,203,4.0,-999.0,86,0.00,,,0.00,Wunderground v.1.15,2013-11-05 16:33:00,
2013-11-05 11:38:00,53.6,48.9,30.33,SSW,203,5.0,-999.0,84,0.00,,,0.00,Wunderground v.1.15,2013-11-05 16:38:00,
2013-11-05 11:43:00,53.6,48.9,30.33,SSW,203,5.0,-999.0,84,0.00,,,0.00,Wunderground v.1.15,2013-11-05 16:43:00,
2013-11-05 11:48:00,54.1,48.7,30.33,SSW,203,5.0,-999.0,82,0.00,,,0.00,Wunderground v.1.15,2013-11-05 16:48:00,
2013-11-05 11:53:00,54.1,48.7,30.33,SSW,203,5.0,-999.0,82,0.00,,,0.00,Wunderground v.1.15,2013-11-05 16:53:00,
2013-11-05 11:58:00,54.1,48.7,30.33,SSW,203,7.0,-999.0,82,0.00,,,0.00,Wunderground v.1.15,2013-11-05 16:58:00,
2013-11-05 12:03:00,54.1,48.7,30.33,SSW,203,7.0,-999.0,82,0.00,,,0.00,Wunderground v.1.15,2013-11-05 17:03:00,
2013-11-05 12:08:00,54.3,47.9,30.32,SSW,203,4.0,-999.0,79,0.00,,,0.00,Wunderground v.1.15,2013-11-05 17:08:00,
2013-11-05 12:13:00,54.3,47.9,30.32,SSW,203,4.0,-999.0,79,0.00,,,0.00,Wunderground v.1.15,2013-11-05 17:13:00,
2013-11-05 12:18:00,54.5,48.1,30.31,SSW,203,5.0,-999.0,79,0.00,,,0.00,Wunderground v.1.15,2013-11-05 17:18:00,
2013-11-05 12:23:00,54.5,48.1,30.31,SSW,203,5.0,-999.0,79,0.00,,,0.00,Wunderground v.1.15,2013-11-05 17:23:00,
2013-11-05 12:28:00,54.8,48.1,30.32,SSW,203,5.0,-999.0,78,0.00,,,0.00,Wunderground v.1.15,2013-11-05 17:28:00,
2013-11-05 12:33:00,54.8,48.1,30.32,SSW,203,5.0,-999.0,78,0.00,,,0.00,Wunderground v.1.15,2013-11-05 17:33:00,
2013-11-05 12:38:00,55.4,48.3,30.31,SSW,203,5.0,-999.0,77,0.00,,,0.00,Wunderground v.1.15,2013-11-05 17:38:00,
2013-11-05 12:43:00,55.4,48.3,30.31,SSW,203,5.0,-999.0,77,0.00,,,0.00,Wunderground v.1.15,2013-11-05 17:43:00,
2013-11-05 12:48:00,55.6,47.8,30.30,SW,225,5.0,-999.0,75,0.00,,,0.00,Wunderground v.1.15,2013-11-05 17:48:00,
2013-11-05 12:53:00,55.6,47.8,30.30,SW,225,5.0,-999.0,75,0.00,,,0.00,Wunderground v.1.15,2013-11-05 17:53:00,
2013-11-05 12:58:00,55.7,48.2,30.29,SSW,203,5.0,-999.0,76,0.00,,,0.00,Wunderground v.1.15,2013-11-05 17:58:00,
2013-11-05 13:03:00,55.7,48.2,30.29,SSW,203,5.0,-999.0,76,0.00,,,0.00,Wunderground v.1.15,2013-11-05 18:03:00,
2013-11-05 13:08:00,56.0,47.5,30.29,SSW,203,6.0,-999.0,73,0.00,,,0.00,Wunderground v.1.15,2013-11-05 18:08:00,
2013-11-05 13:13:00,56.0,47.5,30.29,SSW,203,6.0,-999.0,73,0.00,,,0.00,Wunderground v.1.15,2013-11-05 18:13:00,
2013-11-05 13:18:00,56.2,46.9,30.29,SSW,203,7.0,-999.0,71,0.00,,,0.00,Wunderground v.1.15,2013-11-05 18:18:00,
2013-11-05 13:23:00,56.2,46.9,30.29,SSW,203,7.0,-999.0,71,0.00,,,0.00,Wunderground v.1.15,2013-11-05 18:23:00,
2013-11-05 13:28:00,56.3,47.8,30.29,SSW,203,6.0,-999.0,73,0.00,,,0.00,Wunderground v.1.15,2013-11-05 18:28:00,
2013-11-05 13:33:00,56.3,47.8,30.29,SSW,203,6.0,-999.0,73,0.00,,,0.00,Wunderground v.1.15,2013-11-05 18:33:00,
2013-11-05 13:38:00,56.5,47.6,30.28,SSW,203,6.0,-999.0,72,0.00,,,0.00,Wunderground v.1.15,2013-11-05 18:38:00,
2013-11-05 13:43:00,56.5,47.6,30.28,SSW,203,6.0,-999.0,72,0.00,,,0.00,Wunderground v.1.15,2013-11-05 18:43:00,
2013-11-05 13:48:00,56.6,47.7,30.27,SSW,203,5.0,-999.0,72,0.00,,,0.00,Wunderground v.1.15,2013-11-05 18:48:00,
2013-11-05 13:53:00,56.6,47.7,30.27,SSW,203,5.0,-999.0,72,0.00,,,0.00,Wunderground v.1.15,2013-11-05 18:53:00,
2013-11-05 13:58:00,56.7,47.4,30.27,SSW,203,6.0,-999.0,71,0.00,,,0.00,Wunderground v.1.15,2013-11-05 18:58:00,
2013-11-05 14:03:00,56.7,47.4,30.27,SSW,203,6.0,-999.0,71,0.00,,,0.00,Wunderground v.1.15,2013-11-05 19:03:00,
2013-11-05 14:08:00,57.0,46.5,30.27,SSW,203,6.0,-999.0,68,0.00,,,0.00,Wunderground v.1.15,2013-11-05 19:08:00,
2013-11-05 14:13:00,57.0,46.5,30.27,SSW,203,6.0,-999.0,68,0.00,,,0.00,Wunderground v.1.15,2013-11-05 19:13:00,
2013-11-05 14:18:00,56.9,46.8,30.27,SSW,203,5.0,-999.0,69,0.00,,,0.00,Wunderground v.1.15,2013-11-05 19:18:00,
2013-11-05 14:23:00,56.9,46.8,30.27,SSW,203,5.0,-999.0,69,0.00,,,0.00,Wunderground v.1.15,2013-11-05 19:23:00,
2013-11-05 14:28:00,56.7,46.6,30.27,SSW,203,7.0,-999.0,69,0.00,,,0.00,Wunderground v.1.15,2013-11-05 19:28:00,
2013-11-05 14:33:00,56.7,46.6,30.27,SSW,203,7.0,-999.0,69,0.00,,,0.00,Wunderground v.1.15,2013-11-05 19:33:00,
2013-11-05 14:38:00,56.5,46.4,30.25,SSW,203,5.0,-999.0,69,0.00,,,0.00,Wunderground v.1.15,2013-11-05 19:38:00,
2013-11-05 14:43:00,56.5,46.4,30.25,SSW,203,5.0,-999.0,69,0.00,,,0.00,Wunderground v.1.15,2013-11-05 19:43:00,
2013-11-05 14:48:00,56.8,46.7,30.24,SW,225,1.0,-999.0,69,0.00,,,0.00,Wunderground v.1.15,2013-11-05 19:48:00,
2013-11-05 14:53:00,56.8,46.7,30.24,SW,225,1.0,-999.0,69,0.00,,,0.00,Wunderground v.1.15,2013-11-05 19:53:00,
2013-11-05 14:58:00,56.8,46.7,30.25,SW,225,2.0,-999.0,69,0.00,,,0.00,Wunderground v.1.15,2013-11-05 19:58:00,
2013-11-05 15:03:00,56.8,46.7,30.25,SW,225,2.0,-999.0,69,0.00,,,0.00,Wunderground v.1.15,2013-11-05 20:03:00,
2013-11-05 15:08:00,56.8,46.7,30.24,SSW,203,2.0,-999.0,69,0.00,,,0.00,Wunderground v.1.15,2013-11-05 20:08:00,
2013-11-05 15:13:00,56.8,46.7,30.24,SSW,203,2.0,-999.0,69,0.00,,,0.00,Wunderground v.1.15,2013-11-05 20:13:00,
2013-11-05 15:18:00,56.7,46.3,30.25,SW,225,2.0,-999.0,68,0.00,,,0.00,Wunderground v.1.15,2013-11-05 20:18:00,
2013-11-05 15:23:00,56.7,46.3,30.25,SW,225,2.0,-999.0,68,0.00,,,0.00,Wunderground v.1.15,2013-11-05 20:23:00,
2013-11-05 15:28:00,56.6,46.9,30.25,SSW,203,3.0,-999.0,70,0.00,,,0.00,Wunderground v.1.15,2013-11-05 20:28:00,
2013-11-05 15:33:00,56.6,46.9,30.25,SSW,203,3.0,-999.0,70,0.00,,,0.00,Wunderground v.1.15,2013-11-05 20:33:00,
2013-11-05 15:38:00,56.6,46.2,30.24,SW,225,2.0,-999.0,68,0.00,,,0.00,Wunderground v.1.15,2013-11-05 20:38:00,
2013-11-05 15:43:00,56.6,46.2,30.24,SW,225,2.0,-999.0,68,0.00,,,0.00,Wunderground v.1.15,2013-11-05 20:43:00,
2013-11-05 15:48:00,56.8,46.7,30.24,ENE,68,1.0,-999.0,69,0.00,,,0.00,Wunderground v.1.15,2013-11-05 20:48:00,
2013-11-05 15:53:00,56.8,46.7,30.24,ENE,68,1.0,-999.0,69,0.00,,,0.00,Wunderground v.1.15,2013-11-05 20:53:00,
2013-11-05 15:58:00,57.5,46.6,30.24,SSW,203,4.0,-999.0,67,0.00,,,0.00,Wunderground v.1.15,2013-11-05 20:58:00,
2013-11-05 16:03:00,57.5,46.6,30.24,SSW,203,4.0,-999.0,67,0.00,,,0.00,Wunderground v.1.15,2013-11-05 21:03:00,
2013-11-05 16:08:00,58.1,47.2,30.23,SSW,203,2.0,-999.0,67,0.00,,,0.00,Wunderground v.1.15,2013-11-05 21:08:00,
2013-11-05 16:13:00,58.1,47.2,30.23,SSW,203,2.0,-999.0,67,0.00,,,0.00,Wunderground v.1.15,2013-11-05 21:13:00,
2013-11-05 16:18:00,57.8,47.3,30.23,WSW,248,2.0,-999.0,68,0.00,,,0.00,Wunderground v.1.15,2013-11-05 21:18:00,
2013-11-05 16:23:00,57.8,47.3,30.23,WSW,248,2.0,-999.0,68,0.00,,,0.00,Wunderground v.1.15,2013-11-05 21:23:00,
2013-11-05 16:28:00,56.6,46.2,30.23,SW,225,3.0,-999.0,68,0.00,,,0.00,Wunderground v.1.15,2013-11-05 21:28:00,
2013-11-05 16:33:00,56.6,46.2,30.23,SW,225,3.0,-999.0,68,0.00,,,0.00,Wunderground v.1.15,2013-11-05 21:33:00,
2013-11-05 16:38:00,55.8,46.5,30.23,SW,225,1.0,-999.0,71,0.00,,,0.00,Wunderground v.1.15,2013-11-05 21:38:00,
2013-11-05 16:43:00,55.8,46.5,30.23,SW,225,1.0,-999.0,71,0.00,,,0.00,Wunderground v.1.15,2013-11-05 21:43:00,
2013-11-05 16:48:00,55.4,47.2,30.23,SSW,203,1.0,-999.0,74,0.00,,,0.00,Wunderground v.1.15,2013-11-05 21:48:00,
2013-11-05 16:53:00,55.4,47.2,30.23,SSW,203,1.0,-999.0,74,0.00,,,0.00,Wunderground v.1.15,2013-11-05 21:53:00,
2013-11-05 16:58:00,55.1,46.2,30.23,NE,45,1.0,-999.0,72,0.00,,,0.00,Wunderground v.1.15,2013-11-05 21:58:00,
2013-11-05 17:03:00,55.1,46.2,30.23,NE,45,1.0,-999.0,72,0.00,,,0.00,Wunderground v.1.15,2013-11-05 22:03:00,
2013-11-05 17:08:00,54.4,45.9,30.23,East,90,1.0,-999.0,73,0.00,,,0.00,Wunderground v.1.15,2013-11-05 22:08:00,
2013-11-05 17:13:00,54.4,45.9,30.23,East,90,1.0,-999.0,73,0.00,,,0.00,Wunderground v.1.15,2013-11-05 22:13:00,
2013-11-05 17:18:00,54.1,46.3,30.22,NW,315,1.0,-999.0,75,0.00,,,0.00,Wunderground v.1.15,2013-11-05 22:18:00,
2013-11-05 17:23:00,54.1,46.3,30.22,NW,315,1.0,-999.0,75,0.00,,,0.00,Wunderground v.1.15,2013-11-05 22:23:00,
2013-11-05 17:28:00,53.7,45.6,30.22,North,0,1.0,-999.0,74,0.00,,,0.00,Wunderground v.1.15,2013-11-05 22:28:00,
2013-11-05 17:33:00,53.7,45.6,30.22,North,0,1.0,-999.0,74,0.00,,,0.00,Wunderground v.1.15,2013-11-05 22:33:00,
2013-11-05 17:38:00,53.3,45.9,30.22,East,90,0.0,-999.0,76,0.00,,,0.00,Wunderground v.1.15,2013-11-05 22:38:00,
2013-11-05 17:43:00,53.3,45.9,30.22,East,90,0.0,-999.0,76,0.00,,,0.00,Wunderground v.1.15,2013-11-05 22:43:00,
2013-11-05 17:48:00,52.9,45.9,30.21,NNE,23,1.0,-999.0,77,0.00,,,0.00,Wunderground v.1.15,2013-11-05 22:48:00,
2013-11-05 17:53:00,52.9,45.9,30.21,NNE,23,1.0,-999.0,77,0.00,,,0.00,Wunderground v.1.15,2013-11-05 22:53:00,
2013-11-05 17:58:00,52.6,45.2,30.21,NE,45,1.0,-999.0,76,0.00,,,0.00,Wunderground v.1.15,2013-11-05 22:58:00,
2013-11-05 18:03:00,52.6,45.2,30.21,NE,45,1.0,-999.0,76,0.00,,,0.00,Wunderground v.1.15,2013-11-05 23:03:00,
2013-11-05 18:08:00,52.7,45.7,30.21,North,0,1.0,-999.0,77,0.00,,,0.00,Wunderground v.1.15,2013-11-05 23:08:00,
2013-11-05 18:13:00,52.7,45.7,30.21,North,0,1.0,-999.0,77,0.00,,,0.00,Wunderground v.1.15,2013-11-05 23:13:00,
2013-11-05 18:18:00,52.7,45.3,30.21,WNW,293,1.0,-999.0,76,0.00,,,0.00,Wunderground v.1.15,2013-11-05 23:18:00,
2013-11-05 18:23:00,52.7,45.3,30.21,WNW,293,1.0,-999.0,76,0.00,,,0.00,Wunderground v.1.15,2013-11-05 23:23:00,
2013-11-05 18:28:00,52.5,45.2,30.21,WNW,293,1.0,-999.0,76,0.00,,,0.00,Wunderground v.1.15,2013-11-05 23:28:00,
2013-11-05 18:33:00,52.5,45.2,30.21,WNW,293,1.0,-999.0,76,0.00,,,0.00,Wunderground v.1.15,2013-11-05 23:33:00,
2013-11-05 18:38:00,52.4,44.7,30.21,NNW,338,1.0,-999.0,75,0.00,,,0.00,Wunderground v.1.15,2013-11-05 23:38:00,
2013-11-05 18:43:00,52.4,44.7,30.21,NNW,338,1.0,-999.0,75,0.00,,,0.00,Wunderground v.1.15,2013-11-05 23:43:00,
2013-11-05 18:48:00,52.1,45.4,30.21,NE,45,1.0,-999.0,78,0.00,,,0.00,Wunderground v.1.15,2013-11-05 23:48:00,
2013-11-05 18:53:00,52.1,45.4,30.21,NE,45,1.0,-999.0,78,0.00,,,0.00,Wunderground v.1.15,2013-11-05 23:53:00,
2013-11-05 18:58:00,52.0,45.4,30.21,ENE,68,0.0,-999.0,78,0.00,,,0.00,Wunderground v.1.15,2013-11-05 23:58:00,
2013-11-05 19:03:00,52.0,45.4,30.21,ENE,68,0.0,-999.0,78,0.00,,,0.00,Wunderground v.1.15,2013-11-06 00:03:00,
2013-11-05 19:08:00,51.9,45.3,30.21,SE,135,1.0,-999.0,78,0.00,,,0.00,Wunderground v.1.15,2013-11-06 00:08:00,
2013-11-05 19:13:00,51.9,45.3,30.21,SE,135,1.0,-999.0,78,0.00,,,0.00,Wunderground v.1.15,2013-11-06 00:13:00,
2013-11-05 19:18:00,51.8,45.2,30.21,NNE,23,1.0,-999.0,78,0.00,,,0.00,Wunderground v.1.15,2013-11-06 00:18:00,
2013-11-05 19:23:00,51.8,45.2,30.21,NNE,23,1.0,-999.0,78,0.00,,,0.00,Wunderground v.1.15,2013-11-06 00:23:00,
2013-11-05 19:28:00,52.0,45.4,30.20,NE,45,1.0,-999.0,78,0.00,,,0.00,Wunderground v.1.15,2013-11-06 00:28:00,
2013-11-05 19:33:00,52.0,45.4,30.20,NE,45,1.0,-999.0,78,0.00,,,0.00,Wunderground v.1.15,2013-11-06 00:33:00,
2013-11-05 19:38:00,52.1,45.4,30.20,NE,45,1.0,-999.0,78,0.00,,,0.00,Wunderground v.1.15,2013-11-06 00:38:00,
2013-11-05 19:43:00,52.1,45.4,30.20,NE,45,1.0,-999.0,78,0.00,,,0.00,Wunderground v.1.15,2013-11-06 00:43:00,
2013-11-05 19:48:00,52.1,45.4,30.20,NNE,23,1.0,-999.0,78,0.00,,,0.00,Wunderground v.1.15,2013-11-06 00:48:00,
2013-11-05 19:53:00,52.1,45.4,30.20,NNE,23,1.0,-999.0,78,0.00,,,0.00,Wunderground v.1.15,2013-11-06 00:53:00,
2013-11-05 19:58:00,52.2,45.5,30.19,WNW,293,1.0,-999.0,78,0.00,,,0.00,Wunderground v.1.15,2013-11-06 00:58:00,
2013-11-05 20:03:00,52.2,45.5,30.19,WNW,293,1.0,-999.0,78,0.00,,,0.00,Wunderground v.1.15,2013-11-06 01:03:00,
2013-11-05 20:08:00,52.4,45.7,30.19,NW,315,1.0,-999.0,78,0.00,,,0.00,Wunderground v.1.15,2013-11-06 01:08:00,
2013-11-05 20:13:00,52.4,45.7,30.19,NW,315,1.0,-999.0,78,0.00,,,0.00,Wunderground v.1.15,2013-11-06 01:13:00,
2013-11-05 20:18:00,52.4,45.4,30.19,NW,315,1.0,-999.0,77,0.00,,,0.00,Wunderground v.1.15,2013-11-06 01:18:00,
2013-11-05 20:23:00,52.4,45.4,30.19,NW,315,1.0,-999.0,77,0.00,,,0.00,Wunderground v.1.15,2013-11-06 01:23:00,
2013-11-05 20:28:00,52.6,45.6,30.18,ENE,68,1.0,-999.0,77,0.00,,,0.00,Wunderground v.1.15,2013-11-06 01:28:00,
2013-11-05 20:33:00,52.6,45.6,30.18,ENE,68,1.0,-999.0,77,0.00,,,0.00,Wunderground v.1.15,2013-11-06 01:33:00,
2013-11-05 20:38:00,52.8,45.4,30.18,WNW,293,1.0,-999.0,76,0.00,,,0.00,Wunderground v.1.15,2013-11-06 01:38:00,
2013-11-05 20:43:00,52.8,45.4,30.18,WNW,293,1.0,-999.0,76,0.00,,,0.00,Wunderground v.1.15,2013-11-06 01:43:00,
2013-11-05 20:48:00,53.0,45.6,30.17,NNE,23,2.0,-999.0,76,0.00,,,0.00,Wunderground v.1.15,2013-11-06 01:48:00,
2013-11-05 20:53:00,53.0,45.6,30.17,NNE,23,2.0,-999.0,76,0.00,,,0.00,Wunderground v.1.15,2013-11-06 01:53:00,
2013-11-05 20:58:00,52.9,45.2,30.17,West,270,2.0,-999.0,75,0.00,,,0.00,Wunderground v.1.15,2013-11-06 01:58:00,
2013-11-05 21:03:00,52.9,45.2,30.17,West,270,2.0,-999.0,75,0.00,,,0.00,Wunderground v.1.15,2013-11-06 02:03:00,
2013-11-05 21:08:00,52.9,45.2,30.16,NW,315,2.0,-999.0,75,0.00,,,0.00,Wunderground v.1.15,2013-11-06 02:08:00,
2013-11-05 21:13:00,52.9,45.2,30.16,NW,315,2.0,-999.0,75,0.00,,,0.00,Wunderground v.1.15,2013-11-06 02:13:00,
2013-11-05 21:18:00,53.1,45.4,30.16,NW,315,2.0,-999.0,75,0.00,,,0.00,Wunderground v.1.15,2013-11-06 02:18:00,
2013-11-05 21:23:00,53.1,45.4,30.16,NW,315,2.0,-999.0,75,0.00,,,0.00,Wunderground v.1.15,2013-11-06 02:23:00,
2013-11-05 21:28:00,53.2,45.1,30.16,WSW,248,2.0,-999.0,74,0.00,,,0.00,Wunderground v.1.15,2013-11-06 02:28:00,
2013-11-05 21:33:00,53.2,45.1,30.16,WSW,248,2.0,-999.0,74,0.00,,,0.00,Wunderground v.1.15,2013-11-06 02:33:00,
2013-11-05 21:38:00,53.0,44.9,30.16,ENE,68,2.0,-999.0,74,0.00,,,0.00,Wunderground v.1.15,2013-11-06 02:38:00,
2013-11-05 21:43:00,53.0,44.9,30.16,ENE,68,2.0,-999.0,74,0.00,,,0.00,Wunderground v.1.15,2013-11-06 02:43:00,
2013-11-05 21:48:00,52.8,44.7,30.16,West,270,1.0,-999.0,74,0.00,,,0.00,Wunderground v.1.15,2013-11-06 02:48:00,
2013-11-05 21:53:00,52.8,44.7,30.16,West,270,1.0,-999.0,74,0.00,,,0.00,Wunderground v.1.15,2013-11-06 02:53:00,
2013-11-05 21:58:00,52.7,44.6,30.15,NNE,32,1.0,3.0,74,0.00,,,0.00,Wunderground v.1.15,2013-11-06 02:58:00,
2013-11-05 22:00:00,52.7,45.0,30.15,WNW,287,1.0,1.0,75,0.00,,,0.00,Wunderground v.1.15,2013-11-06 03:00:00,
2013-11-05 22:02:00,52.6,44.5,30.15,South,188,1.0,3.0,74,0.00,,,0.00,Wunderground v.1.15,2013-11-06 03:02:00,
2013-11-05 22:04:00,52.6,44.9,30.15,SW,222,1.0,3.0,75,0.00,,,0.00,Wunderground v.1.15,2013-11-06 03:04:00,
2013-11-05 22:06:00,52.6,44.9,30.15,SSW,193,1.0,3.0,75,0.00,,,0.00,Wunderground v.1.15,2013-11-06 03:06:00,
2013-11-05 22:12:00,52.5,44.8,30.15,North,352,1.0,1.0,75,0.00,,,0.00,Wunderground v.1.15,2013-11-06 03:12:00,
2013-11-05 22:34:00,52.0,44.3,30.14,SE,139,1.0,1.0,75,0.00,,,0.00,Wunderground v.1.15,2013-11-06 03:34:00,
2013-11-05 22:40:00,51.6,44.3,30.14,SSW,198,1.0,4.0,76,0.00,,,0.00,Wunderground v.1.15,2013-11-06 03:40:00,
2013-11-05 22:46:00,51.6,44.3,30.14,NE,55,1.0,1.0,76,0.00,,,0.00,Wunderground v.1.15,2013-11-06 03:46:00,
2013-11-05 22:52:00,51.7,44.0,30.13,South,174,1.0,1.0,75,0.00,,,0.00,Wunderground v.1.15,2013-11-06 03:52:00,
2013-11-05 22:58:00,51.8,44.5,30.13,WNW,290,1.0,1.0,76,0.00,,,0.00,Wunderground v.1.15,2013-11-06 03:58:00,
2013-11-05 23:04:00,52.0,44.3,30.13,NE,39,1.0,6.0,75,0.00,,,0.00,Wunderground v.1.15,2013-11-06 04:04:00,
2013-11-05 23:10:00,52.1,44.1,30.12,South,169,1.0,1.0,74,0.00,,,0.00,Wunderground v.1.15,2013-11-06 04:10:00,
2013-11-05 23:16:00,52.1,44.1,30.12,SW,219,1.0,6.0,74,0.00,,,0.00,Wunderground v.1.15,2013-11-06 04:16:00,
2013-11-05 23:22:00,52.2,44.5,30.12,SE,131,1.0,6.0,75,0.00,,,0.00,Wunderground v.1.15,2013-11-06 04:22:00,
2013-11-05 23:28:00,52.1,44.8,30.12,ESE,122,1.0,6.0,76,0.00,,,0.00,Wunderground v.1.15,2013-11-06 04:28:00,
2013-11-05 23:34:00,51.9,44.6,30.11,NNW,333,1.0,6.0,76,0.00,,,0.00,Wunderground v.1.15,2013-11-06 04:34:00,
2013-11-05 23:40:00,51.9,44.2,30.11,WSW,239,1.0,6.0,75,0.00,,,0.00,Wunderground v.1.15,2013-11-06 04:40:00,
2013-11-05 23:46:00,52.0,44.0,30.11,NNW,336,1.0,6.0,74,0.00,,,0.00,Wunderground v.1.15,2013-11-06 04:46:00,
2013-11-05 23:52:00,52.1,45.1,30.11,ESE,113,1.0,6.0,77,0.00,,,0.00,Wunderground v.1.15,2013-11-06 04:52:00,
2013-11-05 23:58:00,52.4,44.0,30.10,WSW,249,2.0,6.0,73,0.00,,,0.00,Wunderground v.1.15,2013-11-06 04:58:00,